Tracking 22780 objects as of 11-Apr-2021
HD Live streaming from Space Station
objects crossing your sky now

TITAN 3C TRANSTAGE DEB

Track TITAN 3C TRANSTAGE DEB now!


NORAD ID: 43449
Int'l Code: 1969-013J
Perigee: 36,298.0 km
Apogee: 37,418.2 km
Inclination: 3.6 °
Period: 1,490.8 minutes
Semi major axis: 43229 km
RCS: Unknown
Launch date: February 9, 1969
Source: United States (US)
Launch site: AIR FORCE EASTERN TEST RANGE (AFETR)

Note: This is SATELLITE DEBRIS
aabbcc
Your satellite tracking list
Your tracking list is empty




NASA's NSSDC Master Catalog

Two Line Element Set (TLE):
1 43449U 69013J   21099.72350351 -.00000227  00000-0  00000-0 0  9992
2 43449   3.6001 291.3498 0129569 179.5757 179.9976  0.96591434 10544
Source of the keplerian elements: AFSPC